DAH6333 DAOO-DAAG

Flight info

Callsign DAH6333
Flight time 0h 39m
Altitude 31000
Route SID51 CHE UA31 ALR G26 ZEM
Aircraft A339/H-SDE1E2E3GHIJ1J4J5M1P2RWXY/LB1D1

Departure

Time 2026-04-29 01:01
Airport Oran Es-Sénia (Ahmed Ben Bella) International Airport (DAOO)

Arrival

Time 2026-04-29 01:40
Airport Houari Boumediene Airport (DAAG)
Time Latitude Longitude Altitude Speed Heading
2026-04-29 00:45 35.62002 -0.61015 313 ft 0 kts 200°
2026-04-29 00:51 35.62021 -0.61006 314 ft 6 kts 195°
2026-04-29 00:52 35.62028 -0.61004 313 ft 4 kts 194°
2026-04-29 00:52 35.62039 -0.61000 314 ft 2 kts 192°
2026-04-29 00:52 35.62069 -0.61000 312 ft 5 kts 114°
2026-04-29 00:52 35.62075 -0.61010 313 ft 1 kts 73°
2026-04-29 00:53 35.62075 -0.61009 313 ft 0 kts 75°
2026-04-29 00:53 35.62074 -0.61010 312 ft 0 kts 75°
2026-04-29 00:54 35.62082 -0.60986 314 ft 7 kts 70°
2026-04-29 00:54 35.62109 -0.60906 315 ft 12 kts 67°
2026-04-29 00:54 35.62148 -0.60792 315 ft 17 kts 67°
2026-04-29 00:54 35.62180 -0.60699 314 ft 19 kts 67°
2026-04-29 00:55 35.62237 -0.60531 315 ft 23 kts 67°
2026-04-29 00:55 35.62331 -0.60375 312 ft 23 kts 19°
2026-04-29 00:55 35.62494 -0.60360 313 ft 23 kts 355°
2026-04-29 00:55 35.62649 -0.60423 311 ft 23 kts 338°
2026-04-29 00:56 35.62800 -0.60500 311 ft 24 kts 337°
2026-04-29 00:56 35.62834 -0.60518 310 ft 24 kts 337°
2026-04-29 00:57 35.62893 -0.60621 313 ft 17 kts 269°
2026-04-29 00:57 35.62872 -0.60693 311 ft 0 kts 246°
2026-04-29 01:00 35.62870 -0.60700 310 ft 6 kts 246°
2026-04-29 01:00 35.62750 -0.61036 312 ft 87 kts 246°
2026-04-29 01:00 35.62404 -0.62038 314 ft 163 kts 247°
2026-04-29 01:00 35.62310 -0.62310 375 ft 169 kts 247°
2026-04-29 01:01 35.62134 -0.62823 670 ft 168 kts 248°
2026-04-29 01:01 35.61681 -0.64150 1627 ft 169 kts 246°
2026-04-29 01:01 35.61086 -0.65412 2513 ft 176 kts 238°
2026-04-29 01:02 35.60321 -0.66687 3159 ft 194 kts 234°
2026-04-29 01:02 35.59582 -0.68155 3649 ft 212 kts 252°
2026-04-29 01:02 35.59488 -0.68619 3779 ft 216 kts 260°
2026-04-29 01:02 35.59560 -0.70195 4079 ft 235 kts 285°
2026-04-29 01:03 35.60439 -0.71994 4369 ft 261 kts 314°
2026-04-29 01:03 35.62048 -0.73135 4861 ft 276 kts 344°
2026-04-29 01:03 35.63979 -0.73221 5496 ft 283 kts 12°
2026-04-29 01:03 35.65753 -0.72209 6215 ft 286 kts 40°
2026-04-29 01:04 35.66993 -0.70305 6832 ft 289 kts 67°
2026-04-29 01:04 35.67412 -0.67904 7456 ft 289 kts 95°
2026-04-29 01:04 35.66921 -0.65539 8059 ft 288 kts 122°
2026-04-29 01:04 35.65663 -0.63744 8696 ft 283 kts 148°
2026-04-29 01:05 35.64557 -0.63022 9146 ft 280 kts 162°
2026-04-29 01:05 35.63014 -0.61529 9699 ft 297 kts 127°
2026-04-29 01:05 35.62394 -0.59064 10221 ft 314 kts 93°
2026-04-29 01:05 35.62940 -0.56434 10773 ft 326 kts 66°
2026-04-29 01:06 35.63971 -0.53857 10991 ft 346 kts 65°
2026-04-29 01:06 35.65035 -0.51122 11177 ft 364 kts 65°
2026-04-29 01:06 35.66120 -0.48361 11668 ft 371 kts 65°
2026-04-29 01:06 35.67312 -0.45378 12288 ft 375 kts 65°
2026-04-29 01:07 35.68482 -0.42479 12867 ft 379 kts 64°
2026-04-29 01:07 35.69671 -0.39552 13478 ft 383 kts 64°
2026-04-29 01:07 35.70729 -0.36533 14007 ft 385 kts 75°
2026-04-29 01:07 35.71145 -0.33299 14620 ft 383 kts 91°
2026-04-29 01:08 35.70911 -0.30044 15164 ft 383 kts 101°
2026-04-29 01:08 35.70518 -0.26799 15689 ft 386 kts 101°
2026-04-29 01:08 35.70132 -0.23495 16235 ft 389 kts 100°
2026-04-29 01:08 35.69757 -0.20184 16759 ft 393 kts 100°
2026-04-29 01:09 35.69385 -0.16849 17303 ft 396 kts 99°
2026-04-29 01:09 35.69010 -0.13482 17837 ft 399 kts 99°
2026-04-29 01:09 35.68630 -0.10086 18353 ft 402 kts 99°
2026-04-29 01:09 35.68245 -0.06661 18836 ft 405 kts 99°
2026-04-29 01:10 35.67850 -0.03179 19134 ft 418 kts 99°
2026-04-29 01:10 35.67440 0.00419 19295 ft 433 kts 99°
2026-04-29 01:10 35.67012 0.04158 19529 ft 446 kts 99°
2026-04-29 01:10 35.66577 0.07956 20104 ft 451 kts 99°
2026-04-29 01:11 35.66132 0.11837 20696 ft 455 kts 99°
2026-04-29 01:11 35.65683 0.15726 21071 ft 464 kts 99°
2026-04-29 01:11 35.65227 0.19670 21618 ft 468 kts 99°
2026-04-29 01:11 35.64764 0.23654 22203 ft 473 kts 99°
2026-04-29 01:12 35.64420 0.27701 22710 ft 479 kts 92°
2026-04-29 01:12 35.64689 0.31805 23284 ft 484 kts 80°
2026-04-29 01:12 35.65619 0.35799 23745 ft 489 kts 68°
2026-04-29 01:12 35.67185 0.39512 24234 ft 490 kts 56°
2026-04-29 01:13 35.69147 0.42958 24622 ft 492 kts 52°
2026-04-29 01:13 35.71181 0.46368 24911 ft 496 kts 52°
2026-04-29 01:13 35.73174 0.49833 24910 ft 495 kts 54°
2026-04-29 01:13 35.75072 0.53292 24911 ft 495 kts 55°
2026-04-29 01:14 35.76984 0.56882 24907 ft 495 kts 56°
2026-04-29 01:14 35.78833 0.60406 24914 ft 495 kts 56°
2026-04-29 01:14 35.80695 0.63973 24911 ft 495 kts 56°
2026-04-29 01:14 35.82580 0.67591 24904 ft 495 kts 56°
2026-04-29 01:15 35.84418 0.71117 24911 ft 495 kts 56°
2026-04-29 01:15 35.86277 0.74683 24912 ft 495 kts 56°
2026-04-29 01:15 35.88139 0.78257 24906 ft 495 kts 56°
2026-04-29 01:15 35.90003 0.81837 24907 ft 495 kts 56°
2026-04-29 01:16 35.91865 0.85416 24907 ft 495 kts 56°
2026-04-29 01:16 35.93722 0.88990 24909 ft 495 kts 56°
2026-04-29 01:16 35.95544 0.92498 24910 ft 495 kts 56°
2026-04-29 01:16 35.97404 0.96085 24907 ft 495 kts 56°
2026-04-29 01:17 35.99262 0.99672 24910 ft 496 kts 56°
2026-04-29 01:17 36.01122 1.03266 24912 ft 496 kts 56°
2026-04-29 01:17 36.02977 1.06854 24915 ft 496 kts 56°
2026-04-29 01:17 36.04832 1.10445 24899 ft 496 kts 56°
2026-04-29 01:18 36.06061 1.12826 24899 ft 496 kts 56°
2026-04-29 01:18 36.10379 1.21208 24904 ft 496 kts 57°
2026-04-29 01:18 36.11598 1.23577 24907 ft 496 kts 57°
2026-04-29 01:19 36.13462 1.27204 24911 ft 496 kts 57°
2026-04-29 01:19 36.15315 1.30814 24927 ft 496 kts 57°
2026-04-29 01:19 36.17146 1.34385 24911 ft 496 kts 57°
2026-04-29 01:19 36.19004 1.38012 24909 ft 495 kts 57°
2026-04-29 01:20 36.20832 1.41585 24832 ft 485 kts 57°
2026-04-29 01:20 36.22618 1.45079 24699 ft 472 kts 57°
2026-04-29 01:20 36.24086 1.47953 24338 ft 467 kts 57°
2026-04-29 01:20 36.25826 1.51362 23626 ft 466 kts 57°
2026-04-29 01:21 36.27551 1.54745 22919 ft 461 kts 57°
2026-04-29 01:21 36.29256 1.58094 22263 ft 455 kts 57°
2026-04-29 01:21 36.30924 1.61373 21598 ft 450 kts 57°
2026-04-29 01:21 36.32587 1.64646 20925 ft 444 kts 57°
2026-04-29 01:22 36.34229 1.67879 20247 ft 440 kts 58°
2026-04-29 01:22 36.35830 1.71034 19744 ft 432 kts 58°
2026-04-29 01:22 36.37405 1.74142 19461 ft 418 kts 58°
2026-04-29 01:22 36.38934 1.77163 19064 ft 407 kts 58°
2026-04-29 01:23 36.40429 1.80118 18640 ft 398 kts 58°
2026-04-29 01:23 36.41887 1.83001 18219 ft 390 kts 58°
2026-04-29 01:23 36.43300 1.85798 17778 ft 382 kts 58°
2026-04-29 01:23 36.44696 1.88563 17356 ft 373 kts 58°
2026-04-29 01:24 36.46061 1.91271 16946 ft 365 kts 58°
2026-04-29 01:24 36.47404 1.93937 16538 ft 364 kts 58°
2026-04-29 01:24 36.48740 1.96590 16136 ft 367 kts 58°
2026-04-29 01:24 36.50092 1.99278 15700 ft 364 kts 58°
2026-04-29 01:25 36.51426 2.01933 15284 ft 361 kts 58°
2026-04-29 01:25 36.52762 2.04590 14859 ft 362 kts 58°
2026-04-29 01:25 36.54095 2.07246 14441 ft 361 kts 58°
2026-04-29 01:25 36.55413 2.09874 14011 ft 357 kts 58°
2026-04-29 01:26 36.56735 2.12514 13572 ft 359 kts 58°
2026-04-29 01:26 36.58058 2.15155 13131 ft 356 kts 58°
2026-04-29 01:26 36.59322 2.17777 12612 ft 351 kts 63°
2026-04-29 01:26 36.60260 2.20606 11913 ft 355 kts 74°
2026-04-29 01:27 36.60788 2.23672 11572 ft 365 kts 83°
2026-04-29 01:27 36.61203 2.26789 11324 ft 364 kts 82°
2026-04-29 01:27 36.61633 2.29856 10957 ft 361 kts 81°
2026-04-29 01:27 36.62074 2.32917 10521 ft 355 kts 81°
2026-04-29 01:28 36.62505 2.35884 10276 ft 341 kts 81°
2026-04-29 01:28 36.62918 2.38756 10107 ft 322 kts 81°
2026-04-29 01:28 36.63300 2.41401 9928 ft 306 kts 82°
2026-04-29 01:28 36.63678 2.44045 9803 ft 309 kts 82°
2026-04-29 01:29 36.64053 2.46691 9542 ft 311 kts 82°
2026-04-29 01:29 36.64424 2.49312 9131 ft 310 kts 82°
2026-04-29 01:29 36.64797 2.51934 8711 ft 304 kts 82°
2026-04-29 01:29 36.65162 2.54504 8293 ft 296 kts 82°
2026-04-29 01:30 36.65474 2.56704 7953 ft 289 kts 83°
2026-04-29 01:30 36.65819 2.59147 7543 ft 282 kts 83°
2026-04-29 01:30 36.66153 2.61524 7153 ft 275 kts 83°
2026-04-29 01:30 36.66481 2.63856 6753 ft 270 kts 83°
2026-04-29 01:31 36.66799 2.66129 6359 ft 271 kts 84°
2026-04-29 01:31 36.67126 2.68482 5926 ft 270 kts 84°
2026-04-29 01:31 36.67438 2.70734 5538 ft 265 kts 83°
2026-04-29 01:31 36.67755 2.73054 5182 ft 283 kts 83°
2026-04-29 01:32 36.67981 2.74703 4934 ft 285 kts 82°
2026-04-29 01:32 36.68078 2.75400 4827 ft 283 kts 82°
2026-04-29 01:32 36.68431 2.77878 4444 ft 273 kts 80°
2026-04-29 01:32 36.68967 2.80105 4101 ft 263 kts 72°
2026-04-29 01:33 36.69501 2.82208 3983 ft 245 kts 75°
2026-04-29 01:33 36.69826 2.84182 3969 ft 224 kts 85°
2026-04-29 01:33 36.69912 2.86051 3970 ft 206 kts 92°
2026-04-29 01:33 36.69886 2.87861 3978 ft 211 kts 94°
2026-04-29 01:34 36.69844 2.89644 3973 ft 198 kts 94°
2026-04-29 01:34 36.69807 2.91328 3974 ft 202 kts 94°
2026-04-29 01:34 36.69763 2.93086 3801 ft 206 kts 94°
2026-04-29 01:34 36.69724 2.94861 3493 ft 203 kts 94°
2026-04-29 01:35 36.69683 2.96614 3219 ft 202 kts 93°
2026-04-29 01:35 36.69642 2.98377 2946 ft 201 kts 92°
2026-04-29 01:35 36.69601 3.00125 2676 ft 200 kts 93°
2026-04-29 01:35 36.69562 3.01829 2415 ft 198 kts 92°
2026-04-29 01:36 36.69522 3.03513 2166 ft 188 kts 92°
2026-04-29 01:36 36.69487 3.05086 1927 ft 174 kts 93°
2026-04-29 01:36 36.69453 3.06525 1694 ft 158 kts 93°
2026-04-29 01:36 36.69420 3.07906 1493 ft 163 kts 92°
2026-04-29 01:37 36.69389 3.09249 1274 ft 151 kts 92°
2026-04-29 01:37 36.69358 3.10569 1071 ft 151 kts 92°
2026-04-29 01:37 36.69337 3.11459 934 ft 143 kts 92°
2026-04-29 01:37 36.69329 3.11793 894 ft 146 kts 92°
2026-04-29 01:38 36.69300 3.13058 702 ft 141 kts 93°
2026-04-29 01:38 36.69270 3.14302 526 ft 144 kts 94°
2026-04-29 01:38 36.69246 3.15484 326 ft 146 kts 94°
2026-04-29 01:38 36.69222 3.16743 161 ft 143 kts 92°
2026-04-29 01:39 36.69196 3.17742 90 ft 144 kts 92°
2026-04-29 01:39 36.69168 3.18637 86 ft 111 kts 92°
2026-04-29 01:40 36.69149 3.19372 87 ft 62 kts 89°
2026-04-29 01:40 36.69218 3.19903 83 ft 60 kts 65°
2026-04-29 01:40 36.69324 3.20194 68 ft 27 kts 73°
2026-04-29 01:40 36.69433 3.20237 72 ft 18 kts 348°
2026-04-29 01:41 36.69497 3.20235 76 ft 8 kts
2026-04-29 01:41 36.69557 3.20238 76 ft 7 kts